Showing default

OPS 9331 (IDSCS 16), 2862

Orbit data source: Space-Track

OPS 9331 (IDSCS 16), 2862 is a payload satellite owned by SAMSO (US) in GEO that was launched on Sat, 01 Jul 1967 UTC via a TITAN IIIC launch vehicle from the Air Force Eastern Test Range (AFETR). Payload-class satellites include a variety of spacecraft equipped with specific instruments for various scientific and technological missions. These include communications satellites like Starlink; space stations such as the ISS; scientific satellites like the Hubble; Earth observation satellites from companies like Planet Labs, Umbra, and HawkEye 360; GPS; miniature CubeSats for education and research; and military/defense satellites.

Loading next visibility...
Identifier
2862, 1967-066A
Orbit
GEO
Country
Flag of USUS
Related business
Manufacturer
Philco-Ford WDL
Mission
Non-operational spacecraft
Bus & Motor
IDCSP, Unknown motor
Mass
45 kg wet, 45 kg dry
Launch date (UTC)
1967-07-01 (58 years ago)
Launch vehicle
TITAN IIIC
Launch site
Air Force Eastern Test Range (AFETR)
Object type
Payload
Rocket body
Debris
Shape & HBR
Unknown
Radar Cross Section
Medium (>0.1 m² and <1 m²)

Expand to show TLE details & history
Last TLE update: 21 hours ago

TLE from 21 hours ago
0 OPS 9331 (IDSCS 16)
1 02862U 67066A   25340.61066420 -.00000072  00000-0  00000-0 0  9992
2 02862   2.4245 100.9279 0063085 234.5528 167.5869  1.09955475135080
Epoch: 2025-12-06T14:39Z
TLE epoch observation values (Epoch: 2025-12-06T14:39:21.386Z)
Latitude
1.63986°
Longitude
-152.28756°
Altitude
33,515.772 km
Speed
3.151 km/s
True Right ascension
09h 32m 44s
True Declination
1° 38' 17"
Sunlit
Object was in daylight at epoch
Visualization orbit readout
Latitude
Unknown
Longitude
Unknown
Altitude
Unknown
Speed
Unknown
Apparent Right ascension
Unknown
Apparent Declination
Unknown
Sunlit
N/A
Visualization observer readout
Local Sidereal Time
09:54:50
Azimuth
Unknown
Elevation
Unknown
Doppler factor
Unknown
Orbital elements
Apogee altitude
33,524.428 km
Perigee altitude
33,024.133 km
Semi-major axis
39,652.417 km
Eccentricity
0.00631
Inclination
2.4245°
RAAN
100.9279°
Arg. of periapsis
234.5528°
True anomaly
167.74111°
Mean anomaly
167.5869°
Eccentric anomaly
167.66412°
Mean motion
0.27488 °/min
Orbital period
1,309.68 mins
BSTAR
0
Loading maneuver chart data...
Computing Atmospheric mass density...
Loading historical data...
Loading historical data...
Loading historical data...
Loading historical data...
Loading historical data...
Loading historical data...
Loading historical data...

Documentation

Showing up to 5 results
|